Find Starlink 3546

NORAD ID: 51718 Int'l Des: 2022-016 Owner: SPXS Country: US Constellation: starlink operational
LEOCIRCULAR

現在のビュー

3D地球を読み込み中...

About Starlink 3546

Starlink 3546 (NORAD 51718) is a starlink constellation satellite (v1.5) launched Feb 21, 2022 by SPXS of US. It operates in LEO, CIRCULAR orbit with a mass of 297.00 kg.

次回通過

Passes for default location (London). Set your location on the main map for personalized predictions.

高度履歴

Loading altitude history...

軌道要素

1 51718U 22016E 26264.19325752 .00017684 00000-0 73312-3 0 9992
2 51718 53.1800 153.8096 0004099 131.3681 228.7671 15.23978547254317
Epoch: Sep 21, 2026 • Age: 8 hours

現在のステータス

高度 496.5 km
遠地点 / 近地点 N/A
速度 7.62 km/s
衛星直下点 0.88°N, 35.13°W
打ち上げ日 Feb 21, 2022
運用期間 4.5 years
タイプ internet

技術仕様

分類 Payload
質量 297.00 kg
乾燥質量 275.00 kg
長さ 0.20 m
スパン 9.00 m
形状 ? Box + pan
製造者 SPXS
バスタイプ Starlink
フェーズステータス In Orbit
所有者/国 SPXS/US

Most Searched